Weather History for Valparaiso, IN

Change the Weather History Date:

Friday, April 26, 2013

  Actual Average Record
Temperature  
Mean Temperature 50 °F 53 °F  
Max Temperature 67 °F 64 °F 83 °F (2009)
Min Temperature 32 °F 42 °F 32 °F (2013)
Degree Days  
Heating Degree Days 15 12  
Month to date heating degree days 497 435  
Since 1 July heating degree days 5866 6012  
Cooling Degree Days 0 0  
Month to date cooling degree days 0 0  
Year to date cooling degree days 0 0  
Moisture  
Dew Point 36 °F    
Average Humidity 57    
Maximum Humidity 85    
Minimum Humidity 38    
Precipitation  
Precipitation 0.00 in 0.13 in 0.59 in (2011)
Month to date precipitation 6.11 2.91  
Year to date precipitation 10.20 8.56  
Sea Level Pressure  
Sea Level Pressure 30.35 in    
Wind  
Wind Speed 8 mph (South)    
Max Wind Speed 20 mph    
Max Gust Speed 25 mph    
Visibility 10 miles    
Events      
T = Trace of Precipitation, MM = Missing Value Source: NWS Daily Summary

Daily Weather History Graph

Daily Weather History Graph

Search for Another Location

Airport:

Trip Planner

Search our weather history database for the weather conditions in past years. The results will help you decide how hot, cold, wet, or windy it might be!

Date:

Astronomy

Apr. 26, 2013 Rise Set
Actual Time 5:51 AM CDT 7:40 PM CDT
Civil Twilight 5:21 AM CDT 8:10 PM CDT
Nautical Twilight 4:45 AM CDT 8:46 PM CDT
Astronomical Twilight 4:07 AM CDT 9:25 PM CDT
Moon 9:03 PM CDT (4/26) 6:18 AM CDT (4/26)
Length of Visible Light 14h 48m
Length of Day
13h 49m
Full, 99% of the Moon is Illuminated
Apr 26
Full
May 2
Last Quarter
May 9
New
May 17
First Quarter
May 24
Full

Hourly Weather History & Observations

Time (CDT) Temp. Windchill Dew Point Humidity Pressure Visibility Wind Dir Wind Speed Gust Speed Precip Events Conditions
12:53 AM 34.0 °F - 28.9 °F 82% 30.38 in 10.0 mi Calm Calm - N/A   Clear
2:53 AM 34.0 °F - 28.0 °F 79% 30.37 in 10.0 mi Calm Calm - N/A   Clear
3:53 AM 33.1 °F - 28.9 °F 85% 30.38 in 10.0 mi Calm Calm - N/A   Clear
4:53 AM 37.0 °F 33.3 °F 28.9 °F 73% 30.38 in 10.0 mi SSE 4.6 mph - N/A   Clear
5:53 AM 37.0 °F 32.4 °F 28.9 °F 73% 30.38 in 10.0 mi SSE 5.8 mph - N/A   Clear
6:53 AM 39.9 °F 34.5 °F 30.0 °F 68% 30.39 in 10.0 mi SSE 8.1 mph - N/A   Clear
7:53 AM 43.0 °F 38.8 °F 32.0 °F 65% 30.40 in 10.0 mi SSE 6.9 mph - N/A   Clear
8:53 AM 48.9 °F - 35.1 °F 59% 30.40 in 10.0 mi South 9.2 mph - N/A   Clear
9:53 AM 54.0 °F - 34.0 °F 47% 30.40 in 10.0 mi South 11.5 mph 19.6 mph N/A   Clear
10:53 AM 57.9 °F - 35.1 °F 42% 30.40 in 10.0 mi South 13.8 mph 19.6 mph N/A   Clear
11:53 AM 60.1 °F - 37.9 °F 44% 30.39 in 10.0 mi South 16.1 mph 24.2 mph N/A   Clear
12:53 PM 63.0 °F - 39.0 °F 41% 30.37 in 10.0 mi South 16.1 mph - N/A   Clear
1:53 PM 63.0 °F - 39.0 °F 41% 30.35 in 10.0 mi South 15.0 mph - N/A   Clear
2:53 PM 64.0 °F - 39.0 °F 40% 30.33 in 10.0 mi South 16.1 mph 21.9 mph N/A   Clear
3:53 PM 66.0 °F - 39.9 °F 38% 30.31 in 10.0 mi SSW 16.1 mph 21.9 mph N/A   Clear
4:53 PM 64.0 °F - 39.9 °F 41% 30.30 in 10.0 mi South 10.4 mph 21.9 mph N/A   Clear
5:53 PM 64.9 °F - 41.0 °F 42% 30.30 in 10.0 mi SSW 10.4 mph 21.9 mph N/A   Partly Cloudy
6:53 PM 62.1 °F - 41.0 °F 46% 30.30 in 10.0 mi SSW 11.5 mph - N/A   Clear
7:53 PM 59.0 °F - 41.0 °F 51% 30.31 in 10.0 mi SSW 6.9 mph - N/A   Clear
8:53 PM 55.9 °F - 41.0 °F 57% 30.32 in 10.0 mi SSW 5.8 mph - N/A   Clear
9:53 PM 54.0 °F - 42.1 °F 64% 30.31 in 10.0 mi South 4.6 mph - N/A   Clear
10:53 PM 52.0 °F - 42.1 °F 69% 30.32 in 10.0 mi South 3.5 mph - N/A   Clear
11:53 PM 50.0 °F - 42.1 °F 74% 30.33 in 10.0 mi South 4.6 mph - N/A   Clear